Location: Central Coast
(33.3208°S, 151.2336°E)
Time: 16:20:56
(UTC+11:00)

Envisat - Pass Details

Date: 13 October 2017
Orbit: 764 x 766 km, 98.2° (Epoch: 12 December)

Event Time Altitude Azimuth Distance (km) Brightness Sun altitude
Rises 20:27:07 0° 150° (SSE) 3,260 6.2 -17.0°
Reaches altitude 10° 20:30:01 10° 134° (SE) 2,325 5.3 -17.6°
Enters shadow 20:31:30 16° 119° (ESE) 1,951 4.7 -17.9°
